Regional Weather Roundup
Issued by NWS Nashville, TN

Home | Current Version | Previous Version | Text Only | Print | Product List | Glossary On
Versions: 1 2 3 4 5 6 7 8 9 10 11 12 13 14 15 16 17 18 19 20 21 22 23 24 25 26 27 28 29 30 31 32 33 34 35 36 37 38 39 40 41 42 43 44 45 46 47 48 49 50
000
ASUS44 KOHX 191310
RWROHX
MIDDLE TENNESSEE HOURLY WEATHER ROUNDUP
NATIONAL WEATHER SERVICE NASHVILLE TN
700 AM CST FRI JAN 19 2018

NOTE: "FAIR" INDICATES FEW OR NO CLOUDS BELOW 12,000 FEET WITH
NO SIGNIFICANT WEATHER AND/OR OBSTRUCTIONS TO VISIBILITY.

* THESE REPORTS ARE NOT UNDER NWS QUALITY CONTROL AND MAY NOT
  REPORT WEATHER SUCH AS PRECIPITATION AND FOG.


TNZ005>011-023>034-057-059-062>066-078-080-191400
...NORTHERN MIDDLE TENNESSEE...

CITY           SKY/WX    TMP DP  RH WIND       PRES   REMARKS
CLARKSVILLE      N/A     18   9  68 S6        30.28F WCI  10
CROSSVILLE       N/A     13   7  77 S3        30.28R
GALLATIN       CLEAR     12  10  92 CALM      30.35S
DICKSON          N/A     20  12  71 S6        30.27S WCI  12
NASHVILLE        N/A     19  12  74 S5        30.32S WCI  12
PORTLAND       CLEAR     19  14  79 S10       30.28S WCI   8
SMYRNA           N/A     12  10  92 CALM      30.35S
SPARTA         CLEAR     10   9  92 CALM      30.32R
WEST NASHVILLE CLEAR     16  14  93 CALM      30.30S
$$
TNZ056-058-060-061-075>077-079-093>097-191400
...SOUTHERN MIDDLE TENNESSEE...

CITY           SKY/WX    TMP DP  RH WIND       PRES   REMARKS
COLUMBIA       CLEAR     18  14  86 CALM      30.31R
FAYETTEVILLE   CLEAR     19  14  79 CALM      30.32R
MCMINNVILLE    CLEAR     12   9  85 CALM      30.32F
PULASKI        CLEAR     12  10  92 CALM      30.34R
SHELBYVILLE    CLEAR     14  10  85 E5        30.33R WCI   6
TULLAHOMA      CLEAR     12  10  92 CALM      30.31S
WINCHESTER     CLEAR     14  10  85 CALM      30.33S
$$


...KEY TO REMARKS...
VSB - VISIBILITY IN MILES
WCI - WIND CHILL INDEX
HX  - HEAT INDEX




USA.gov is the U.S. government's official web portal to all federal, state and local government web resources and services.